Location: Bayshore Village Mobile Home Park
(26.6945°N, 81.8642°W)
Time: 21:36:35
(UTC+00:00)

Cosmos 2082 - Pass Details

Date: 17 June 2021
Orbit: 832 x 856 km, 71.0° (Epoch: 31 July)

Event Time Altitude Azimuth Distance (km) Brightness Sun altitude
Rises 00:59:43 0° 347° (NNW) 3,427 7.6 -8.0°
Reaches altitude 10° 01:02:15 10° 353° (N) 2,489 6.7 -8.5°
Maximum altitude 01:07:50 53° 69° (ENE) 1,045 4.0 -9.6°
Enters shadow 01:13:10 11° 145° (SE) 2,403 5.5 -10.6°
